Location: Cataure de Ceme
(10.0291°N, 67.3794°W)
Time: 12:47:10
(UTC+00:00)

Daily predictions for brighter satellites

Satellite Brightness Start Highest point End
(mag) Time Altitude Azimuth Time Altitude Azimuth Time Altitude Azimuth
Gbstr 26 Del rocket 4.4 23:02:06 10° NNW 23:07:27 35° NE 23:11:54 10° ESE
Cosmos 1515 3.4 23:07:39 10° S 23:11:06 69° E 23:14:32 10° N
Cosmos 1076 Rocket 3.5 23:07:10 10° N 23:11:25 72° E 23:15:42 10° S
Cosmos 921 Rocket 3.0 23:07:38 10° S 23:12:04 73° E 23:16:30 10° NNE
SAR-Lupe-2 3.5 23:09:08 10° SSE 23:12:41 80° ENE 23:16:14 10° N
ATLAS 3B R/B 4.4 23:08:01 10° NNE 23:12:56 18° ENE 23:17:41 10° E
GPS 2-14 Rocket1 3.7 23:11:19 10° NW 23:13:56 25° NNE 23:16:32 10° ENE
Cosmos 1378 2.8 23:17:45 10° S 23:20:57 57° E 23:24:08 10° NNE
CZ-4B R/B 3.6 23:20:07 10° SSE 23:24:41 49° ENE 23:29:19 10° N
Helios 1B rocket 4.5 23:23:38 10° SSW 23:26:57 27° W 23:30:16 10° NW
Cosmos 494 Rocket 3.9 23:22:05 10° SSW 23:27:11 87° E 23:32:16 10° NNE
Cosmos 2278 Rocket 2.6 23:22:43 10° NNW 23:28:18 67° WSW 23:33:53 10° S
ATLAS 5 CENTAUR R/B 4.0 23:23:44 10° NW 23:29:42 38° WSW 23:36:25 10° S
Centaur AC-119 4.3 23:26:45 10° S 23:30:07 24° SE 23:37:35 10° E
NOAA 6 4.4 23:26:00 10° S 23:31:03 67° WSW 23:36:08 10° NNW
CBERS 1 LM4 rocket 4.5 23:27:51 10° SSE 23:32:52 80° ENE 23:38:06 10° N
Cosmos 192 4.3 23:29:08 10° N 23:34:03 72° ENE 23:38:57 10° SSE
USA 308 4.4 23:33:32 10° WNW 23:36:05 22° SW 23:38:57 10° S
Radarsat Rocket 4.2 23:30:44 10° S 23:36:31 74° WSW 23:42:35 10° NNW
SJ-6B 4.0 23:35:03 17° ESE 23:36:36 22° ENE 23:39:32 10° NNE
Landsat 7 3.7 23:40:02 10° SSE 23:44:43 86° ENE 23:49:24 10° N
USA 290 2.9 23:43:13 10° N 23:46:09 34° ENE 23:46:55 29° ESE
Tsikada Rocket 4.1 23:41:15 10° SSE 23:47:12 52° E 23:53:11 10° NNE
Cosmos 1603 3.6 23:45:41 10° SSW 23:51:17 85° ESE 23:56:57 10° NNE
